シューメーカー-レヴィ第2彗星

137P/Shoemaker-Levy 2 (2018)

English version
Home page
Updated on November 9, 2019

---------------------------------------------------------------------

・ プロフィール

・ 写真集

・ 軌道要素

Epoch 2018 Dec. 28.0 TT = JDT 2458480.5
T 2018 Dec. 13.39052 TT                                 Williams
q   1.9302213            (2000.0)            P               Q
n   0.10259450     Peri.  141.01592     +0.96808259     -0.24132940
a   4.5191143      Node   233.08072     +0.20352935     +0.91447979
e   0.5728762      Incl.    4.85386     +0.14625971     +0.32478737
P   9.61
From 1088 observations 1990 Sept. 16-2019 Nov. 4, mean residual 0".4.

・ 星図

・ 光度変化

        H = 14.0  G = 0.15

---------------------------------------------------------------------

軌道要素はM.P.E.C. 2019-V116に掲載されたものです。
星図はステラナビゲータ Ver.10 (アストロアーツ) で作成したものです。
光度グラフはComet for Windowsで作成したものです。

---------------------------------------------------------------------

Copyright(C) Seiichi Yoshida (comet@aerith.net). All rights reserved.